www.pogodaiklimat.ru

Погода и климат >> Архив погоды >> Бразилия >> Мату-Гросу >> Сорризу


ПОГОДА в Сорризу

  • Прогноз погоды в Сорризу
  • Монитор погоды в Сорризу

АРХИВ ПОГОДЫ в Сорризу

Время (UTC), дата Ветер
(напр.,м/с)
 
Видим.   Явления Облачность Т
(С)
Тd
(С)
f
(%)
Тe
(С)
Тes
(С)
Комфортность P
(гПа)
Po
(гПа)
Тmin
(С)
Tmax
(С)
R
(мм)
R24
(мм)
S
(см)
01 12.09 В 1
{3}
н/о н/о +27.9 +13.6 41 +30 +30 жарко 1010.4 967.8
02 12.09 В 1
{2}
н/о н/о +28.8 +13.9 40 +31 +31 жарко 1010.8 968.3
03 12.09 В 1
{2}
н/о н/о +27.7 +13.8 42 +30 +30 жарко 1010.8 968.2
04 12.09 штиль 0
{1}
н/о н/о +26.5 +14.0 46 +29 +29 жарко 1010.7 967.9
05 12.09 штиль 0
{1}
н/о н/о +26.3 +14.2 47 +29 +29 жарко 1010.2 967.4
06 12.09 ЮЗ 1
{3}
н/о н/о +25.5 +14.9 52 +28 +28 жарко 1010.2 967.3
07 12.09 ЮЗ 1
{2}
н/о н/о +23.9 +14.3 55 +26 +26 жарко 1010.6 967.4
08 12.09 штиль 0
{2}
н/о н/о +23.7 +14.1 55 +26 +26 жарко 1010.8 967.6
09 12.09 Ю 1
{1}
н/о н/о +24.1 +13.7 52 +26 +26 жарко 1011.2 968.0
10 12.09 штиль 0
{2}
н/о н/о +22.3 +14.7 62 +26 +26 жарко 1012.5 969.0
11 12.09 штиль 0
{1}
н/о н/о +24.8 +15.4 56 +28 +28 жарко 1012.7 969.6
12 12.09 В 1
{2}
н/о н/о +27.5 +15.2 47 +30 +30 жарко 1013.1 970.3
13 12.09 штиль 0
{2}
н/о н/о +32.3 +13.7 32 +33 +33 жарко 1012.8 970.7
14 12.09 ЮВ 1
{2}
н/о н/о +34.8 +13.1 27 +35 +35 очень
жарко
1012.1 970.4
15 12.09 В 1
{2}
н/о н/о +37.3 +11.6 21 +37 +37 очень
жарко
1011.1 969.7
16 12.09 Ю 1
{3}
н/о н/о +37.7 +11.3 20 +37 +37 очень
жарко
1009.9 968.6
17 12.09 В 2
{3}
н/о н/о +39.0 +8.9 16 +37 +37 очень
жарко
1008.6 967.6
18 12.09 В 2
{4}
н/о н/о +37.5 +9.7 19 +36 +36 очень
жарко
1007.9 966.7
19 12.09 В 2
{4}
н/о н/о +38.0 +9.9 18 +36 +36 очень
жарко
1007.2 966.1
20 12.09 В 2
{4}
н/о н/о +37.2 +9.8 19 +36 +36 очень
жарко
1007.1 965.9
21 12.09 В 2
{3}
н/о н/о +35.3 +11.0 23 +35 +35 очень
жарко
1007.7 966.2
22 12.09 В 1
{3}
н/о н/о +32.6 +11.5 28 +33 +33 жарко 1008.6 966.7
23 12.09 В 1
{2}
н/о н/о +31.2 +10.8 28 +31 +31 жарко 1009.2 967.1
00 13.09 В 1
{2}
н/о н/о +29.9 +10.6 30 +30 +30 жарко 1010.1 967.8
01 13.09 В 1
{2}
н/о н/о +28.6 +10.4 32 +29 +29 жарко 1010.5 968.0
02 13.09 В 1
{2}
н/о н/о +28.1 +10.6 34 +29 +29 жарко 1011.0 968.4
03 13.09 штиль 0
{2}
н/о н/о +26.4 +11.6 40 +28 +28 жарко 1011.1 968.3
04 13.09 Ю 2
{4}
н/о н/о +26.5 +12.5 42 +28 +28 жарко 1011.5 968.7
05 13.09 Ю 2
{4}
н/о н/о +25.8 +16.0 55 +29 +29 душно 1011.2 968.3
06 13.09 Ю 2
{3}
н/о н/о +24.2 +16.4 62 +28 +28 душно 1011.3 968.2
07 13.09 Ю 2
{3}
н/о н/о +23.1 +16.9 68 +28 +28 душно 1011.5 968.2
08 13.09 Ю 2
{3}
н/о н/о +22.5 +17.0 71 +27 +27 душно 1012.0 968.6
09 13.09 Ю 2
{4}
н/о н/о +21.5 +16.7 74 +25 +25 комфорт 1012.8 969.2
10 13.09 Ю 1
{4}
н/о н/о +20.7 +16.5 77 +25 +25 комфорт 1013.9 970.1
11 13.09 Ю 2
{4}
н/о н/о +21.6 +16.7 74 +26 +26 душно 1014.6 970.9
12 13.09 Ю 2
{4}
н/о н/о +24.1 +17.0 65 +28 +28 душно 1014.6 971.3
13 13.09 Ю 2
{4}
н/о н/о +27.1 +17.0 54 +31 +31 душно 1014.4 971.5
14 13.09 Ю 2
{4}
н/о н/о +30.7 +17.3 45 +35 +35 очень
душно
1013.6 971.3
15 13.09 Ю 2
{3}
н/о н/о +33.7 +16.2 35 +36 +36 очень
душно
1012.0 970.1
16 13.09 З 1
{3}
н/о н/о +35.8 +15.0 29 +37 +37 душно 1010.5 969.0
17 13.09 З 1
{3}
н/о н/о +37.9 +14.2 25 +39 +39 очень
душно
1009.0 967.8
18 13.09 З 1
{3}
н/о н/о +38.0 +13.8 24 +38 +38 очень
жарко
1007.8 966.7
19 13.09 В 2
{4}
н/о н/о +37.3 +11.2 21 +37 +37 очень
жарко
1007.4 966.2
20 13.09 В 1
{4}
н/о н/о +37.7 +9.8 19 +36 +36 очень
жарко
1007.4 966.2
21 13.09 В 1
{3}
н/о н/о +35.9 +10.4 21 +35 +35 очень
жарко
1007.9 966.5
22 13.09 ЮВ 1
{2}
н/о н/о +33.4 +11.5 26 +33 +33 жарко 1008.8 967.0
23 13.09 В 1
{1}
н/о н/о +30.9 +12.2 32 +32 +32 жарко 1009.6 967.5
00 14.09 ЮВ 1
{2}
н/о н/о +30.8 +11.8 31 +31 +31 жарко 1010.4 968.2
01 14.09 ЮЗ 1
{2}
н/о н/о +29.8 +14.7 40 +32 +32 душно 1011.4 969.0
02 14.09 Ю 1
{2}
н/о н/о +29.4 +15.7 43 +32 +32 душно 1011.6 969.2
03 14.09 Ю 2
{3}
н/о н/о +28.0 +16.0 48 +31 +31 душно 1011.5 968.9
04 14.09 Ю 1
{3}
н/о н/о +27.0 +16.1 51 +30 +30 душно 1010.9 968.2
05 14.09 Ю 1
{3}
н/о н/о +25.6 +16.2 56 +29 +29 душно 1010.6 967.7
06 14.09 Ю 1
{2}
н/о н/о +25.0 +16.1 58 +28 +28 жарко 1010.4 967.4
07 14.09 Ю 1
{3}
н/о н/о +24.3 +16.2 61 +28 +28 душно 1010.2 967.1
08 14.09 Ю 1
{2}
н/о н/о +23.3 +16.0 64 +28 +28 душно 1010.4 967.2
09 14.09 Ю 1
{3}
н/о н/о +22.8 +16.2 66 +27 +27 душно 1011.1 967.8
10 14.09 Ю 1
{3}
н/о н/о +22.7 +16.3 67 +27 +27 душно 1011.9 968.5
11 14.09 Ю 1
{2}
н/о н/о +24.5 +16.7 62 +28 +28 душно 1012.5 969.3
12 14.09 Ю 1
{3}
н/о н/о +27.2 +17.1 54 +31 +31 душно 1012.7 969.9
13 14.09 ЮВ 1
{3}
н/о н/о +31.2 +16.9 42 +35 +35 очень
душно
1012.3 970.1
14 14.09 ЮЗ 1
{3}
н/о н/о +34.8 +16.1 33 +37 +37 очень
душно
1011.4 969.7
15 14.09 В 1
{2}
н/о н/о +37.3 +14.9 27 +39 +39 очень
душно
1010.4 969.1
16 14.09 З 1
{3}
н/о н/о +38.0 +12.6 22 +38 +38 очень
жарко
1009.2 968.0
17 14.09 В 2
{4}
н/о н/о +39.3 +6.9 14 +37 +37 очень
жарко
1007.8 966.8
18 14.09 В 2
{4}
н/о н/о +39.4 +8.1 15 +37 +37 очень
жарко
1007.0 966.1
19 14.09 В 2
{4}
н/о н/о +38.7 +6.3 14 +36 +36 очень
жарко
1006.6 965.6
20 14.09 В 2
{4}
н/о н/о +38.4 +6.9 15 +36 +36 очень
жарко
1006.5 965.5
21 14.09 В 2
{3}
н/о н/о +36.3 +9.1 19 +35 +35 очень
жарко
1007.0 965.7
22 14.09 В 1
{3}
н/о н/о +33.4 +10.3 24 +33 +33 жарко 1008.1 966.4
23 14.09 В 1
{2}
н/о н/о +31.8 +10.5 27 +32 +32 жарко 1008.8 966.8
00 15.09 В 1
{2}
н/о н/о +30.0 +10.6 30 +30 +30 жарко 1009.9 967.6
01 15.09 В 1
{2}
н/о н/о +29.2 +11.0 32 +30 +30 жарко 1010.4 968.0
02 15.09 штиль 0
{1}
н/о н/о +28.1 +12.0 37 +29 +29 жарко 1010.4 967.8
03 15.09 штиль 0
{2}
н/о н/о +26.4 +12.7 43 +28 +28 жарко 1010.4 967.6
04 15.09 штиль 0
{2}
н/о н/о +24.6 +12.2 46 +26 +26 жарко 1010.3 967.3
05 15.09 штиль 0
{1}
н/о н/о +24.4 +12.8 48 +26 +26 жарко 1009.6 966.6
06 15.09 штиль 0
{1}
н/о н/о +23.8 +14.0 54 +26 +26 жарко 1009.5 966.4
07 15.09 штиль 0 н/о н/о +23.8 +14.0 54 +26 +26 жарко 1009.7 966.6
08 15.09 штиль 0 н/о н/о +22.5 +13.5 57 +26 +26 жарко 1010.2 966.9
09 15.09 штиль 0 н/о н/о +22.0 +13.9 60 +25 +25 комфорт 1010.9 967.5
10 15.09 штиль 0 н/о н/о +22.1 +14.5 62 +25 +25 комфорт 1011.8 968.3
11 15.09 штиль 0 н/о н/о +24.2 +15.0 56 +27 +27 жарко 1012.4 969.2
12 15.09 ЮЗ 1
{1}
н/о н/о +27.2 +15.5 49 +30 +30 душно 1012.6 969.8
13 15.09 З 1
{2}
н/о н/о +29.6 +17.3 48 +34 +34 очень
душно
1012.5 970.1
14 15.09 З 1
{3}
н/о н/о +33.4 +18.3 41 +38 +38 очень
душно
1011.6 969.7
15 15.09 З 1
{3}
н/о н/о +35.6 +16.4 32 +38 +38 очень
душно
1010.3 968.8
16 15.09 З 1
{3}
н/о н/о +37.3 +15.9 28 +39 +39 очень
душно
1009.3 968.0
17 15.09 ЮВ 1
{2}
н/о н/о +38.1 +14.3 24 +39 +39 очень
душно
1007.9 966.8
18 15.09 В 2
{3}
н/о н/о +38.0 +12.5 22 +38 +38 очень
жарко
1006.8 965.7
19 15.09 В 2
{3}
н/о н/о +38.5 +11.0 19 +37 +37 очень
жарко
1005.9 964.9
20 15.09 В 2
{3}
н/о н/о +37.5 +11.3 21 +37 +37 очень
жарко
1005.9 964.8
21 15.09 В 1
{3}
н/о н/о +35.9 +11.9 24 +36 +36 очень
жарко
1006.2 964.9
22 15.09 В 2
{3}
н/о н/о +33.7 +13.4 29 +34 +34 очень
жарко
1007.3 965.6
23 15.09 В 1
{3}
н/о н/о +31.9 +14.4 35 +34 +34 душно 1008.5 966.5
01 16.09 В 1
{2}
н/о н/о +28.9 +16.2 46 +32 +32 душно 1010.6 968.1
02 16.09 З 1
{2}
н/о н/о +28.9 +17.3 50 +33 +33 очень
душно
1011.0 968.5
03 16.09 З 1
{4}
н/о н/о +27.3 +18.0 57 +32 +32 очень
душно
1011.1 968.4
04 16.09 З 1
{3}
н/о н/о +26.3 +18.6 63 +31 +31 душно 1010.7 967.9
05 16.09 З 1
{3}
н/о н/о +25.3 +18.9 68 +30 +30 душно 1009.8 966.9
06 16.09 З 1
{2}
н/о н/о +25.0 +18.9 69 +30 +30 душно 1009.4 966.4
07 16.09 штиль 0
{2}
н/о н/о +24.1 +18.7 72 +29 +29 душно 1009.6 966.5
08 16.09 В 1
{1}
н/о н/о +23.1 +18.5 75 +29 +29 очень
душно
1010.6 967.3
09 16.09 В 1
{2}
н/о н/о +22.0 +18.4 80 +27 +27 душно 1011.7 968.2
10 16.09 штиль 0
{1}
н/о н/о +21.7 +18.6 83 +27 +27 душно 1012.6 969.0
11 16.09 штиль 0
{1}
н/о н/о +24.7 +19.8 74 +30 +30 очень
душно
1013.1 969.9
12 16.09 З 1
{2}
н/о н/о +27.2 +20.1 65 +33 +33 очень
душно
1012.8 970.0
13 16.09 З 2
{3}
н/о н/о +29.7 +20.6 58 +37 +37 очень
душно
1012.4 970.0
14 16.09 З 1
{3}
н/о н/о +33.3 +20.9 48 +40 +40 очень
душно
1011.6 969.7
15 16.09 З 1
{3}
н/о н/о +35.2 +18.8 38 +40 +40 очень
душно
1010.6 969.0
16 16.09 ЮЗ 1
{3}
н/о н/о +37.5 +16.6 29 +40 +40 очень
душно
1009.3 968.0
17 16.09 В 2
{4}
н/о н/о +38.6 +12.4 21 +38 +38 очень
жарко
1007.6 966.6
18 16.09 ЮВ 1
{6}
н/о н/о +38.4 +12.1 21 +38 +38 очень
жарко
1006.7 965.7
19 16.09 В 1
{4}
н/о н/о +39.0 +11.1 19 +38 +38 очень
жарко
1005.9 965.0
20 16.09 В 3
{4}
н/о н/о +37.7 +9.9 19 +36 +36 очень
жарко
1006.3 965.2
21 16.09 В 2
{4}
н/о н/о +36.0 +10.9 22 +35 +35 очень
жарко
1006.7 965.4
22 16.09 В 2
{3}
н/о н/о +33.6 +11.8 27 +34 +34 очень
жарко
1007.8 966.1
23 16.09 В 1
{2}
н/о н/о +31.3 +12.5 32 +32 +32 жарко 1008.5 966.5
00 17.09 В 1
{2}
н/о н/о +29.9 +15.3 41 +32 +32 жарко 1009.2 966.9
01 17.09 В 1
{2}
н/о н/о +28.9 +16.7 48 +33 +33 очень
душно
1010.1 967.7
02 17.09 В 1
{2}
н/о н/о +28.2 +16.9 50 +32 +32 душно 1010.7 968.1
03 17.09 В 1
{2}
н/о н/о +27.5 +17.4 54 +32 +32 очень
душно
1010.7 968.0
04 17.09 В 1
{2}
н/о н/о +26.9 +17.8 57 +31 +31 душно 1010.3 967.6
05 17.09 В 1
{2}
н/о н/о +26.1 +17.9 61 +31 +31 очень
душно
1009.9 967.1
06 17.09 В 1
{2}
н/о н/о +25.7 +17.8 62 +30 +30 душно 1009.7 966.8
07 17.09 З 1
{2}
н/о н/о +24.8 +17.4 63 +29 +29 душно 1009.8 966.8
08 17.09 ЮЗ 1
{3}
н/о н/о +23.7 +17.2 67 +28 +28 душно 1010.5 967.3
09 17.09 ЮЗ 1
{3}
н/о н/о +23.7 +16.8 65 +27 +27 жарко 1010.7 967.5
10 17.09 З 1
{2}
н/о н/о +23.8 +16.6 64 +27 +27 жарко 1011.3 968.1
11 17.09 З 1
{2}
н/о н/о +26.1 +17.2 58 +30 +30 душно 1011.8 968.9
12 17.09 З 1
{2}
н/о н/о +29.0 +17.3 49 +33 +33 очень
душно
1011.6 969.1
13 17.09 З 1
{3}
н/о н/о +32.0 +17.5 42 +36 +36 очень
душно
1011.5 969.4
14 17.09 З 1
{2}
н/о н/о +35.2 +15.0 30 +37 +37 очень
душно
1010.5 968.9
15 17.09 СВ 1
{3}
н/о н/о +37.4 +13.4 24 +38 +38 душно 1009.3 968.0
16 17.09 В 2
{4}
н/о н/о +38.2 +11.3 20 +37 +37 очень
жарко
1007.9 966.8
17 17.09 В 2
{4}
н/о н/о +38.5 +10.1 18 +37 +37 очень
жарко
1006.6 965.6
18 17.09 В 3
{4}
н/о н/о +38.5 +9.6 18 +37 +37 очень
жарко
1005.6 964.6
19 17.09 ЮВ 1
{4}
н/о н/о +38.2 +9.0 17 +36 +36 очень
жарко
1004.8 963.8
20 17.09 В 2
{3}
н/о н/о +38.1 +9.1 17 +36 +36 очень
жарко
1004.7 963.7
21 17.09 В 1
{3}
н/о н/о +36.3 +10.0 20 +35 +35 очень
жарко
1004.8 963.6
22 17.09 В 1
{2}
н/о н/о +33.2 +10.9 26 +33 +33 жарко 1005.5 963.8
23 17.09 В 1
{2}
н/о н/о +31.4 +11.1 29 +32 +32 жарко 1006.1 964.2
00 18.09 В 1
{2}
н/о н/о +31.0 +11.9 31 +31 +31 жарко 1006.7 964.7
01 18.09 В 1
{2}
н/о н/о +29.3 +12.5 36 +30 +30 жарко 1007.6 965.3
02 18.09 В 1
{2}
н/о н/о +28.8 +13.2 38 +30 +30 жарко 1008.0 965.6
03 18.09 В 1
{2}
н/о н/о +27.9 +13.5 41 +30 +30 жарко 1008.0 965.5
04 18.09 В 1
{3}
н/о н/о +28.2 +13.1 39 +30 +30 жарко 1007.8 965.4
05 18.09 СЗ 1
{3}
н/о н/о +26.4 +14.3 47 +29 +29 жарко 1007.5 964.8
06 18.09 З 1
{3}
н/о н/о +26.2 +17.2 58 +30 +30 душно 1007.6 964.9
07 18.09 З 1
{3}
н/о н/о +25.1 +17.2 62 +29 +29 душно 1008.1 965.2
08 18.09 штиль 0
{2}
н/о н/о +24.7 +18.0 66 +29 +29 душно 1008.2 965.3
09 18.09 З 1
{3}
н/о н/о +24.7 +18.2 67 +29 +29 душно 1008.6 965.6
10 18.09 штиль 0
{2}
н/о н/о +23.3 +18.2 73 +29 +29 душно 1009.7 966.5
11 18.09 З 1
{2}
н/о н/о +25.5 +19.5 69 +31 +31 очень
душно
1010.2 967.3
12 18.09 З 1
{4}
н/о н/о +28.5 +19.9 60 +35 +35 очень
душно
1010.4 967.9
13 18.09 Ю 2
{4}
н/о н/о +33.0 +20.4 48 +40 +40 очень
душно
1010.0 968.1
14 18.09 З 2
{4}
н/о н/о +35.0 +19.1 39 +40 +40 очень
душно
1009.3 967.7
15 18.09 З 2
{4}
н/о н/о +36.2 +18.0 34 +40 +40 очень
душно
1008.6 967.2
16 18.09 З 2
{5}
н/о н/о +36.8 +17.1 31 +39 +39 очень
душно
1007.6 966.3
18 18.09 З 2
{4}
н/о н/о +38.2 +15.4 26 +40 +40 очень
душно
1004.7 963.7
19 18.09 З 2
{4}
н/о н/о +38.3 +14.4 24 +39 +39 очень
душно
1004.0 963.1
20 18.09 З 2
{4}
н/о н/о +35.8 +16.9 33 +39 +39 очень
душно
1004.4 963.1
21 18.09 З 2
{4}
н/о н/о +33.7 +17.6 38 +37 +37 очень
душно
1005.0 963.4
22 18.09 З 1
{3}
н/о н/о +32.8 +17.0 39 +36 +36 очень
душно
1005.4 963.7
23 18.09 З 1
{2}
н/о н/о +31.6 +17.4 43 +36 +36 очень
душно
1006.0 964.1
00 19.09 З 1
{2}
н/о н/о +30.0 +17.8 48 +34 +34 очень
душно
1007.0 964.8
01 19.09 З 1
{2}
н/о н/о +29.3 +17.9 50 +34 +34 очень
душно
1007.8 965.5

 

Местоположение метеостанции Сорризу (Мату-Гросу, Бразилия): широта -12.55 долгота -55.72 высота над уровнем моря 382 м.

В архиве по умолчанию представлена погода в Сорризу за последнюю неделю. Архивные данные за месяц целиком и за предыдущие месяцы, начиная с января 2011 года, Вы можете получить, выбрав интересующий диапазон дат из раскрывающегося списка и нажав кнопку "Ввод!".


*Определитесь, кто Вы:
робот инопланетянин человек

Внимание! Время в таблицах - всемирное. Для получения местного времени необходимо прибавить поправку, которая равна -3 ч.

Смотрите также архив погоды в соседних городах и на ближайших метеорологических станциях:

Погода в Синопе (Мату-Гросу, Бразилия) (65 км)
Погода в Глеба Селеста (Мату-Гросу, Бразилия) (93 км)
Погода в Нова-Убиратане (Мату-Гросу, Бразилия) (143 км)
Погода в Сан-Хосе-ду-Рио-Кларо (Мату-Гросу, Бразилия) (144 км)
Погода в Нова-Маринге (Мату-Гросу, Бразилия) (159 км)
Погода в Диамантину (Мату-Гросу, Бразилия) (220 км)
Погода в Аракажу (Мату-Гросу, Бразилия) (229 км)
Погода в Жуаре (Мату-Гросу, Бразилия) (242 км)
Погода в Кампу-Нову-ду-Паресисе (Мату-Гросу, Бразилия) (266 км)
Погода в Ново-Мундо (Мату-Гросу, Бразилия) (273 км)

Пояснения к столбцам:

Ветер - указаны скорость ветра в м/с - средняя за 10 мин, порывы в срок и между сроками (в фигурных скобках) и направление, откуда дует ветер: С - северный, СВ - северо-восточный, В - восточный, ЮВ - юго-восточный, Ю - южный, ЮЗ - юго-западный, З - западный, СЗ - северо-западный.
Видимость - горизонтальная дальность видимости в метрах или километрах. При видимости от 1 до 10 км при отсутствии осадков обычно наблюдается дымка, при ухудшении видимости до 1 км и менее - туман. В сухую погоду видимость может ухудшаться дымом, пылью или мглою.
Явления - указаны атмосферные явления, наблюдавшиеся в срок или в последний час перед сроком; фигурными скобками обозначены явления, наблюдавшиеся между сроками (за 1-3 часа до срока); квадратными скобками обозначены град или гололедные отложения с указанием их диаметра в мм.
Облачность - указаны через наклонную черту общая и нижняя облачность в баллах и высота нижней границы облаков в метрах; квадратными скобками обозначены формы облаков: Ci - перистые, Cs - перисто-слоистые, Cc - перисто-кучевые, Ac - высококучевые, As - высокослоистые, Sc - слоисто-кучевые, Ns - слоисто-дождевые, Cu - кучевые, Cb - кучево-дождевые. Подробнее классификацию облаков см. в Атласе облаков (PDF).
T - Температура воздуха - температура, измеренная на высоте 2 м над землей.
Td - Температура точки росы - температура, при понижении до которой содержащийся в воздухе водяной пар достигнет насыщения.
f - Относительная влажность воздуха - влажноcть воздуха, измеренная на высоте 2 м над землей.
Te - Эффективная температура - температура, которую ощущает одетый по сезону человек в тени. Характеристика душности погоды. При расчете учитывается влияние влажности воздуха и скорости ветра на теплоощущения человека.
Tes - Эффективная температура на солнце - температура, которую ощущает человек, с поправкой на солнечный нагрев. Характеристика знойности погоды. Зависит от высоты солнца над горизонтом, облачности и скорости ветра. Ночью, в пасмурную погоду, а также при ветре 12 м/с и более поправка равна нулю.
P - Атмосферное давление - приведенное к уровню моря атмосферное давление.
Po - Атмосферное давление - измеренное на уровне метеостанции атмосферное давление.
Tmin - Минимальная температура - минимум температуры воздуха на высоте 2 м над землей.
Tmax - Максимальная температура - максимум температуры воздуха на высоте 2 м над землей.
R - Количество осадков - Количество выпавших осадков за период времени, мм. При наведении курсора мыши на число - период времени, за который выпало указанное количество осадков.
R24 - Количество осадков - Количество выпавших осадков за 24 часа, мм.
S - Снежный покров - Высота снежного покрова, см. При наведении курсора мыши на число - состояние снежного покрова и степень покрытия местности в баллах.